Home   Weather   Turku   Past weeks

Flag for Finland Past Weather in Turku, Finland — Yesterday and Last 2 Weeks

Now
36 °F

Passing clouds.


Feels Like: 27 °F
Forecast: 15 / 29 °F
Wind: 13 mph from Northwest

Location: Turku Airport

Current Time: Dec 5, 2016 at 4:36:03 pm

Latest Report: Dec 5, 2016 at 3:50 pm


Visibility: N/A

Pressure: 29.62 "Hg

Humidity: 81%

Dew Point: 30 °F

Location of TurkuLocation

Past Weather in Turku — Graph

°F

Turku Temperature Yesterday

Maximum temperature yesterday: 37 °F (at 11:20 pm)
Minimum temperature yesterday: 3 °F (at 8:50 am)
Average temperature yesterday: 20 °F

High & Low Weather Summary for the Past Weeks

 TemperatureHumidityPressure
High46 °F (Nov 21, 10:20 am)100% (Nov 20, 6:20 pm)30.15 "Hg (Nov 20, 6:20 pm)
Low3 °F (Dec 4, 8:50 am)63% (Nov 27, 10:50 pm)29.15 "Hg (Nov 26, 2:50 pm)
Average33 °F89%29.76 "Hg
* Reported Nov 20 3:20 pm — Dec 5 3:20 pm, Turku, Weather by CustomWeather, © 2016

Note: Actual official high and low records may vary slightly from our data, if they occured in-between our weather recording intervals... More about our weather records

Advertising

Turku Weather History for the Previous 24 Hours

Scroll right to see more
 ConditionsComfort  
Time TempWeatherWind HumidityBarometerVisibility
3:20 pm
Mon, Dec 5
36 °FPartly sunny.13 mph87%29.59 "HgN/A
2:50 pm36 °FLight rain. Partly sunny.14 mph87%29.59 "HgN/A
2:20 pm36 °FLight rain. Partly sunny.16 mph87%29.59 "HgN/A
1:50 pm39 °FPassing clouds.16 mph70%29.56 "HgN/A
1:20 pm39 °FPassing clouds.15 mph70%29.53 "HgN/A
12:50 pm39 °FSunny.15 mph70%29.53 "Hg10 mi
12:20 pm39 °FPassing clouds.13 mph75%29.53 "HgN/A
11:50 am41 °FPassing clouds.16 mph70%29.53 "HgN/A
11:20 am39 °FPassing clouds.9 mph81%29.53 "HgN/A
10:50 am37 °FPassing clouds.7 mph87%29.50 "HgN/A
10:20 am39 °FPassing clouds.10 mph87%29.50 "HgN/A
9:50 am39 °FLight rain. Partly sunny.16 mph87%29.50 "HgN/A
9:20 am43 °FPartly sunny.16 mph71%29.47 "HgN/A
8:50 am43 °FLight rain. Mostly cloudy.21 mph76%29.47 "HgN/A
8:20 am43 °FPassing clouds.23 mph76%29.45 "HgN/A
7:50 am43 °FPassing clouds.20 mph71%29.45 "HgN/A
7:20 am45 °FPassing clouds.23 mph66%29.45 "HgN/A
6:50 am45 °FPassing clouds.23 mph66%29.45 "HgN/A
6:20 am43 °FMostly cloudy.22 mph71%29.45 "HgN/A
5:50 am43 °FLight rain. Overcast.21 mph76%29.47 "HgN/A
5:20 am43 °FLight rain. Overcast.20 mph76%29.50 "HgN/A
4:50 am41 °FLight rain. Mostly cloudy.18 mph81%29.50 "HgN/A
4:20 am43 °FLight rain. Passing clouds.20 mph71%29.50 "HgN/A
3:50 am41 °FPassing clouds.17 mph76%29.50 "HgN/A
3:20 am41 °FMostly cloudy.16 mph76%29.53 "HgN/A
2:50 am41 °FMostly cloudy.15 mph76%29.56 "HgN/A
2:20 am41 °FOvercast.14 mph76%29.56 "HgN/A
1:50 am39 °FLight rain. Mostly cloudy.15 mph87%29.59 "HgN/A
1:20 am39 °FOvercast.13 mph81%29.59 "HgN/A
12:50 am37 °FOvercast.13 mph87%29.62 "HgN/A
12:20 am37 °FLight rain. Mostly cloudy.13 mph87%29.62 "HgN/A
11:50 pm
Sun, Dec 4
37 °FLight rain. Mostly cloudy.14 mph87%29.62 "HgN/A
11:20 pm37 °FMostly cloudy.15 mph87%29.65 "HgN/A
10:50 pm36 °FLight rain. Overcast.12 mph87%29.65 "HgN/A
10:20 pm36 °FLight rain. Mostly cloudy.14 mph87%29.68 "HgN/A
9:50 pm36 °FMostly cloudy.12 mph87%29.68 "HgN/A
9:20 pm34 °FPartly cloudy.12 mph93%29.71 "HgN/A
8:50 pm34 °FPassing clouds.10 mph93%29.71 "HgN/A
8:20 pm36 °FPassing clouds.12 mph87%29.74 "HgN/A
7:50 pm36 °FPassing clouds.10 mph87%29.77 "HgN/A
7:20 pm36 °FPassing clouds.13 mph93%29.77 "HgN/A
6:50 pm36 °FOvercast.12 mph93%29.80 "HgN/A
6:20 pm36 °FOvercast.9 mph93%29.83 "HgN/A
5:50 pm36 °FOvercast.9 mph93%29.86 "HgN/A
5:20 pm34 °FOvercast.8 mph100%29.89 "HgN/A
4:50 pm34 °FLow clouds.8 mph93%29.92 "HgN/A
4:20 pm32 °FLight snow. Low clouds.8 mph100%29.92 "HgN/A
Weather by CustomWeather, © 2016

See weather overviewHow to use our weather pages